Tracking 20036 objects as of 22-Nov-2019
Live streaming from Space Station
objects crossing your sky now

COSMOS 1325

Track COSMOS 1325 now!
10-day predictions
COSMOS 1325 is classified as:


NORAD ID: 12980
Int'l Code: 1981-116F
Perigee: 1,488.6 km
Apogee: 1,623.4 km
Inclination: 74.0 °
Period: 117.1 minutes
Semi major axis: 7926 km
RCS: 0.7 m2 (medium)
Launch date: November 28, 1981
Source: Commonwealth of Independent States (former USSR) (CIS)
Launch site: PLESETSK MISSILE AND SPACE COMPLEX (PKMTR)
aabbcc
Your satellite tracking list
Your tracking list is empty




NASA's NSSDC Master Catalog

Two Line Element Set (TLE):
1 12980U 81116F   19325.88125209 -.00000007 +00000-0 +63048-4 0  9995
2 12980 073.9802 179.0987 0084995 046.4272 032.0349 12.30103043705518
Source of the keplerian elements: AFSPC